Weather in Koygorodok

Russia / Komi Republic     60°26′42″N   50°59′59″E
temp.,
°C
wind,
m/s
gust,
m/s
humid.,
%
clouds,
%
prec.,
mm/h
press.,
hPa
HPBL,
m
14 august, sun
sun1400:00+13wsw256396 0.0 1020142
03:00+12w126613 0.0 102167
06:00+14n23658 0.0 1022180
09:00+18n23410 0.0 10221273
12:00+20nnw34335 0.0 10222069
15:00+21nnw343387 0.0 10212202
18:00+18n22519 0.0 102137
21:00+12ene11670 0.0 102210
15 august, mon
mon1500:00+10wnw117123 0.0 102310
03:00+9wnw117737 0.0 102410
06:00+13wsw11645 0.0 1024105
09:00+19wnw23415 0.0 1024822
12:00+23wnw24335 0.0 10231681
15:00+24wnw353326 0.0 10222302
18:00+21w265096 0.0 1022230
21:00+17wnw2263100 0.0 102333
16 august, tue
tue1600:00+16nw116999 0.0 102412
03:00+12nnw11845 0.0 102511
06:00+14nnw237259 0.0 1026171
09:00+20n234747 0.0 1026786
12:00+23nnw2333100 0.0 10261443
15:00+23nnw2332100 0.0 10251459
18:00+19ne1151100 0.0 102511
21:00+15se2259100 0.0 102521
17 august, wed
wed1700:00+13ssw22665 0.0 102441
03:00+13wsw23796 0.0 102351
06:00+17w25765 0.0 1023173
09:00+23wnw355393 0.0 1022756
12:00+25nw244784 0.0 10211420
15:00+23wnw1258100 0.0 1021159
18:00+18w228688 0.6 102156
21:00+16sw119491 1.9 102118
18 august, thu
thu1800:00+15n119634 0.4 102111
03:00+14n119510 0.4 102110
06:00+16ene129313 0.0 1022128
09:00+17ese2389100 0.0 1023320
12:00+22e226172 0.2 10221100
15:00+23e325366 0.6 10231366
18:00+20ese256649 0.0 1023299
21:00+17s257385 0.0 1024130